User: anonymous   Login
Location: Boston
(42.3580°N, 71.0600°W)
Time: 19:40:41
(UTC-05:00)
Language:

N. Korean satellite - Orbit

View from above orbital plane
View from above orbital plane
View from above satellite
View from above satellite

Ground track
Ground track

The orbit data is extracted from the following two-line orbital elements,

1 39026U 12072A   17350.06561450  .00001512  00000-0  60095-4 0  9998
2 39026  97.2159   1.6893 0038178 252.0483 107.6593 15.26193125277724
Epoch (UTC): 16 December 2017 01:34:29
Eccentricity: 0.0038178
inclination: 97.2159°
perigee height: 461 km
apogee height: 513 km
right ascension of ascending node: 1.6893°
argument of perigee: 252.0483°
revolutions per day: 15.26193125
mean anomaly at epoch: 107.6593°
orbit number at epoch: 27772

The dashed part of the orbit path shows where the satellite is in the earth's shadow,  

DLR